Weather History for Valparaiso, IN

Change the Weather History Date:

Thursday, February 28, 2013

  Actual Average Record
Temperature  
Mean Temperature 34 °F 32 °F  
Max Temperature 36 °F 40 °F 54 °F (2000)
Min Temperature 31 °F 24 °F -3 °F (2014)
Degree Days  
Heating Degree Days 31 33  
Month to date heating degree days 1030 1049  
Since 1 July heating degree days 4391 4732  
Cooling Degree Days 0 0  
Month to date cooling degree days 0 0  
Year to date cooling degree days 0 0  
Moisture  
Dew Point 31 °F    
Average Humidity 90    
Maximum Humidity 100    
Minimum Humidity 80    
Precipitation  
Precipitation 0.03 in 0.05 in 0.21 in (2012)
Month to date precipitation 1.26 1.42  
Year to date precipitation 3.55 3.17  
Sea Level Pressure  
Sea Level Pressure 29.87 in    
Wind  
Wind Speed 10 mph (NNW)    
Max Wind Speed 18 mph    
Max Gust Speed 30 mph    
Visibility 6 miles    
Events Snow    
T = Trace of Precipitation, MM = Missing Value Source: NWS Daily Summary

Daily Weather History Graph

Daily Weather History Graph

Search for Another Location

Airport:

Trip Planner

Search our weather history database for the weather conditions in past years. The results will help you decide how hot, cold, wet, or windy it might be!

Date:

Astronomy

Feb. 28, 2013 Rise Set
Actual Time 6:23 AM CST 5:37 PM CST
Civil Twilight 5:55 AM CST 6:05 PM CST
Nautical Twilight 5:23 AM CST 6:37 PM CST
Astronomical Twilight 4:51 AM CST 7:09 PM CST
Moon 9:07 PM CST (2/28) 7:30 AM CST (2/28)
Length of Visible Light 12h 09m
Length of Day
11h 14m
Waning Gibbous, 90% of the Moon is Illuminated
Feb 28
Waning Gibbous
Mar 4
Last Quarter
Mar 11
New
Mar 19
First Quarter
Mar 27
Full

Hourly Weather History & Observations

Time (CST) Temp. Windchill Dew Point Humidity Pressure Visibility Wind Dir Wind Speed Gust Speed Precip Events Conditions
12:53 AM 33.1 °F 26.1 °F 32.0 °F 96% 29.68 in 4.0 mi NW 8.1 mph - 0.01 in Snow Light Snow
1:09 AM 33.8 °F 26.4 °F 32.0 °F 93% 29.66 in 2.5 mi NW 9.2 mph - 0.00 in Snow Light Snow
1:48 AM 33.8 °F 28.6 °F 32.0 °F 93% 29.67 in 2.5 mi NW 5.8 mph - 0.00 in Snow Light Snow
1:53 AM 33.1 °F 26.9 °F 32.0 °F 96% 29.69 in 2.5 mi NW 6.9 mph - 0.00 in Snow Light Snow
2:01 AM 33.8 °F 26.4 °F 32.0 °F 93% 29.67 in 3.0 mi NW 9.2 mph - 0.00 in Snow Light Snow
2:53 AM 33.1 °F 26.9 °F 32.0 °F 96% 29.70 in 2.5 mi NNW 6.9 mph - 0.01 in Snow Light Snow
3:02 AM 33.8 °F 27.7 °F 32.0 °F 93% 29.68 in 3.0 mi NW 6.9 mph - 0.00 in Snow Light Snow
3:50 AM 33.8 °F 25.8 °F 33.8 °F 100% 29.70 in 8.0 mi NNW 10.4 mph - 0.00 in   Overcast
3:53 AM 34.0 °F 27.2 °F 32.0 °F 92% 29.72 in 9.0 mi NW 8.1 mph - 0.00 in   Overcast
4:53 AM 34.0 °F 26.0 °F 32.0 °F 92% 29.74 in 10.0 mi NNW 10.4 mph - 0.00 in   Overcast
5:53 AM 34.0 °F 26.6 °F 32.0 °F 92% 29.76 in 8.0 mi NNW 9.2 mph - N/A   Overcast
6:18 AM 33.8 °F 27.7 °F 32.0 °F 93% 29.75 in 10.0 mi NNW 6.9 mph - N/A   Overcast
6:35 AM 33.8 °F 25.8 °F 32.0 °F 93% 29.75 in 10.0 mi NW 10.4 mph - N/A   Overcast
6:37 AM 33.8 °F 27.0 °F 32.0 °F 93% 29.75 in 10.0 mi NNW 8.1 mph - N/A   Overcast
6:45 AM 33.8 °F 26.4 °F 32.0 °F 93% 29.76 in 10.0 mi NNW 9.2 mph - N/A   Overcast
6:53 AM 34.0 °F 26.6 °F 32.0 °F 92% 29.78 in 10.0 mi NNW 9.2 mph - N/A   Overcast
7:26 AM 35.6 °F 28.0 °F 32.0 °F 87% 29.78 in 10.0 mi NNW 10.4 mph - N/A   Overcast
8:06 AM 35.6 °F 28.0 °F 32.0 °F 87% 29.80 in 9.0 mi NNW 10.4 mph 16.1 mph N/A   Overcast
8:37 AM 33.8 °F 27.0 °F 33.8 °F 100% 29.81 in 2.5 mi NNW 8.1 mph - 0.00 in Snow Light Snow
8:39 AM 33.8 °F 25.8 °F 32.0 °F 93% 29.81 in 1.8 mi NNW 10.4 mph - 0.00 in Snow Light Snow
8:51 AM 33.8 °F 27.7 °F 33.8 °F 100% 29.81 in 3.0 mi NNW 6.9 mph - 0.01 in Snow Light Snow
8:53 AM 34.0 °F 27.2 °F 33.1 °F 96% 29.83 in 5.0 mi NNW 8.1 mph - 0.01 in Snow Light Snow
9:09 AM 35.6 °F 29.2 °F 33.8 °F 93% 29.81 in 10.0 mi NNW 8.1 mph - 0.00 in   Overcast
9:53 AM 34.0 °F 28.8 °F 33.1 °F 96% 29.86 in 5.0 mi NNW 5.8 mph - 0.00 in Snow Light Snow
10:30 AM 35.6 °F 28.6 °F 33.8 °F 93% 29.84 in 8.0 mi NNW 9.2 mph - 0.00 in   Overcast
10:53 AM 35.1 °F 27.9 °F 33.1 °F 92% 29.88 in 8.0 mi NNW 9.2 mph - 0.01 in Snow Light Snow
11:37 AM 35.6 °F 28.6 °F 33.8 °F 93% 29.86 in 5.0 mi North 9.2 mph - 0.00 in Snow Light Snow
11:53 AM 35.1 °F 29.3 °F 33.1 °F 92% 29.89 in 6.0 mi North 6.9 mph 16.1 mph 0.00 in Snow Light Snow
12:08 PM 35.6 °F 28.6 °F 32.0 °F 87% 29.86 in 8.0 mi North 9.2 mph - 0.00 in   Overcast
12:46 PM 35.6 °F 28.0 °F 30.2 °F 81% 29.87 in 10.0 mi North 10.4 mph 17.3 mph 0.00 in   Overcast
12:53 PM 36.0 °F 28.5 °F 30.9 °F 82% 29.89 in 10.0 mi North 10.4 mph 19.6 mph 0.00 in   Overcast
1:40 PM 35.6 °F 27.1 °F 30.2 °F 81% 29.88 in 4.0 mi North 12.7 mph 18.4 mph 0.00 in Snow Light Snow
1:53 PM 35.1 °F 29.3 °F 30.9 °F 85% 29.91 in 10.0 mi NNW 6.9 mph 17.3 mph 0.00 in   Overcast
2:14 PM 33.8 °F 25.3 °F 30.2 °F 87% 29.89 in 2.5 mi North 11.5 mph 23.0 mph 0.00 in Snow Light Snow
2:18 PM 33.8 °F 23.9 °F 30.2 °F 87% 29.89 in 1.5 mi North 15.0 mph 23.0 mph 0.00 in Snow Light Snow
2:30 PM 33.8 °F 24.8 °F 30.2 °F 87% 29.90 in 3.0 mi NNW 12.7 mph 20.7 mph 0.00 in Snow Light Snow
2:33 PM 33.8 °F 23.5 °F 30.2 °F 87% 29.90 in 2.5 mi NNW 16.1 mph 24.2 mph 0.00 in Snow Light Snow
2:41 PM 33.8 °F 24.8 °F 30.2 °F 87% 29.90 in 1.2 mi NNW 12.7 mph 24.2 mph 0.00 in Snow Light Snow
2:53 PM 33.1 °F 23.9 °F 30.9 °F 92% 29.93 in 1.2 mi NNW 12.7 mph 24.2 mph 0.00 in Snow Light Snow
3:24 PM 33.8 °F 24.3 °F 30.2 °F 87% 29.92 in 1.5 mi NNW 13.8 mph 23.0 mph 0.00 in Snow Light Snow
3:32 PM 33.8 °F 22.8 °F 30.2 °F 87% 29.93 in 2.5 mi North 18.4 mph 26.5 mph 0.00 in Snow Light Snow
3:45 PM 33.8 °F 23.9 °F 30.2 °F 87% 29.93 in 5.0 mi NNW 15.0 mph 25.3 mph 0.00 in Snow Light Snow
3:53 PM 33.1 °F 23.0 °F 28.9 °F 85% 29.96 in 9.0 mi NNW 15.0 mph 24.2 mph 0.00 in   Overcast
4:53 PM 33.1 °F 23.0 °F 28.9 °F 85% 29.99 in 3.0 mi North 15.0 mph 23.0 mph N/A   Overcast
5:12 PM 32.0 °F 21.6 °F 28.4 °F 87% 29.97 in 2.0 mi NNW 15.0 mph 24.2 mph 0.00 in Snow Light Snow
5:23 PM 32.0 °F 23.0 °F 28.4 °F 87% 29.98 in 4.0 mi NNW 11.5 mph 19.6 mph 0.00 in   Overcast
5:53 PM 32.0 °F 22.1 °F 28.0 °F 85% 30.01 in 6.0 mi NNW 13.8 mph 21.9 mph 0.00 in   Overcast
6:31 PM 32.0 °F 23.0 °F 26.6 °F 80% 30.00 in 10.0 mi NNW 11.5 mph 19.6 mph N/A   Overcast
6:53 PM 32.0 °F 23.0 °F 27.0 °F 82% 30.03 in 10.0 mi NNW 11.5 mph 20.7 mph N/A   Overcast
7:53 PM 30.9 °F 21.2 °F 27.0 °F 85% 30.03 in 10.0 mi NNW 12.7 mph 21.9 mph 0.00 in   Overcast
8:28 PM 30.2 °F 20.2 °F 26.6 °F 86% 29.99 in 7.0 mi North 12.7 mph 21.9 mph N/A   Overcast
8:43 PM 30.2 °F 20.8 °F 26.6 °F 86% 30.00 in 9.0 mi North 11.5 mph 23.0 mph N/A   Overcast
8:53 PM 30.9 °F 21.7 °F 27.0 °F 85% 30.02 in 10.0 mi NNW 11.5 mph 24.2 mph N/A   Overcast
9:07 PM 30.2 °F 21.9 °F 26.6 °F 86% 30.00 in 10.0 mi NNW 9.2 mph - N/A   Overcast
9:53 PM 30.9 °F 21.2 °F 26.1 °F 82% 30.03 in 10.0 mi NNW 12.7 mph 23.0 mph N/A   Overcast
10:46 PM 30.2 °F 20.8 °F 28.4 °F 93% 30.00 in 1.8 mi North 11.5 mph 18.4 mph 0.00 in Snow Light Snow
10:53 PM 30.9 °F 22.2 °F 28.0 °F 89% 30.03 in 2.5 mi North 10.4 mph 20.7 mph 0.00 in Snow Light Snow
11:00 PM 30.2 °F 23.4 °F 28.4 °F 93% 30.01 in 9.0 mi NNW 6.9 mph - 0.00 in   Overcast
11:29 PM 30.2 °F 23.4 °F 28.4 °F 93% 30.00 in 10.0 mi NNW 6.9 mph - 0.00 in   Overcast
11:53 PM 30.9 °F 25.2 °F 26.1 °F 82% 30.03 in 10.0 mi North 5.8 mph - 0.00 in   Overcast